"Pseudo-MPEC" for C259D92

Created 2020 Feb 16 9:07:10 UT using Find_Orb

Click here for an explanation of pseudo-MPECs

 
 Astrometry: 
     C259D92  C2020 01 2808mHK#K)[ohb[@USLNBf^hdhtjElD;tT-hXEM;'w)CX#yf*'.pevF52
     C259D92  C2020 01 284-pAstrometryX,=#G71/Yhg%o),lf)%j(kNcSxredacted;OP36F52
     C259D92  C2020 01 28EC=HDU4S4u9qXyD]wheBOuoXK(HL'ki*jxw3trkPZcO=`=\\4eX)F52
     C259D92  C2020 01 28w]eF/lkSv[Q:Y4QyZ\3w1P8NftR,EOj0OSWA`S8H[06gcJ#vH4L`F52
     C259D92  C2020 02 14.46298 11 32 33.32 +20 18 53.3    ~2EBq 20.8 GVNEOCPG96
     C259D92  C2020 02 14.46813 11 32 33.34 +20 18 44.7    ~2EBq 20.1 GVNEOCPG96
     C259D92  C2020 02 14.47328 11 32 33.33 +20 18 35.4    ~2EBq 21.2 GVNEOCPG96
     C259D92  C2020 02 14.47842 11 32 33.43 +20 18 26.2    ~2EBq 20.4 GVNEOCPG96
     C259D92  C2020 02 15.31301 11 32 42.80 +19 54 32.8    ~2F87 21.0 GVNEOCPI52
     C259D92  C2020 02 15.31581 11 32 42.77 +19 54 27.6    ~2F87 21.8 GVNEOCPI52
     C259D92  C2020 02 15.31861 11 32 42.80 +19 54 22.5    ~2F87 21.1 GVNEOCPI52
     C259D92  C2020 02 15.31957 11 32 42.82 +19 54 21.2    ~2F87 20.8 GVNEOCPI52
     C259D92 pC2020 02 16m4YEAXN1CXdyK-Uclick=U7'lXk[gIn$ea9x`ZWhEFcTy4aU+=FgL01
     C259D92 KC2020 02 16c$hereXY9yxGforV'bI]7k(kklEkZ`@#F-@$?qR3@b:(2t+IePR0L01
     C259D92 KC2020 02 16uxU@2p@,M@9nDXH;QT(KwSNK8x7h*Gd\W^HMexplanation%UEnHL01

Station data:
(F52) Pan-STARRS 2, Haleakala  (N20.707384 W156.255910)  US/Hawaii. 1.8-m
   Ritchey-Chrétien + CCD.
(G96) Mt. Lemmon Survey  (N32.442754 W110.788720)  US/Arizona.  Observers T.
   A. Pruyne, B. M. Africano, E. J. Christensen, G. A. Farneth, D. C. Fuls,
   A. R. Gibbs, A. D. Grauer, H. Gröller, J. A. Johnson, R. A. Kowalski, S.
   M. Larson, G. J. Leonard, D. Rankin, R. L. Seaman, F. C. Shelly. 1.5-m
   reflector + 10K CCD.
(I52) Steward Observatory, Mt. Lemmon Station  (N32.442547 W110.788920)
   US/Arizona.  Observers T. A. Pruyne, B. M. Africano, E. J. Christensen, G.
   A. Farneth, D. C. Fuls, A. R. Gibbs, A. D. Grauer, H. Gröller, J. A.
   Johnson, R. A. Kowalski, S. M. Larson, G. J. Leonard, D. Rankin, R. L.
   Seaman, F. C. Shelly. 1.0-m reflector + CCD.
(L01) Višnjan Observatory, Tičan  (N45.290900 E13.749300)  Croatia.
   Observers K. Korlević, E. Pettarin. Measurer E. Pettarin. 1.0-m f/2.9
   reflector + CCD.

Orbital elements:  C259D92
   Perihelion 2020 Mar 18.696147 +/- 0.0326 TT = 16:42:27 (JD 2458927.196147)
Epoch 2020 Feb 16.0 TT = JDT 2458895.5   Earth MOID: 0.2878   Ju: 0.8622
M 352.97264958 +/- 0.017            (J2000 ecliptic)          AutoNEOCP
n   0.22170992 +/- 0.000614         Peri.  187.03281 +/- 0.032
a   2.70362188 +/- 0.00499          Node   350.04485 +/- 0.0054
e   0.5260488 +/- 0.000773          Incl.   12.82794 +/- 0.011
P   4.45                   H 22.0   G  0.15   U  7.8  
q 1.28138467 +/- 0.0003    Q 4.12585910 +/- 0.00975
From 15 observations 2020 Jan. 28-Feb. 16; mean residual 0".27
Residuals in arcseconds: 
200128 F52  .23+  .11+    200214 G96  .15-  .45+    200215 I52  .12+  .45-    
200128 F52  .10+  .02-    200214 G96  .50-  .01-    200215 I52  .40+  .09-    
200128 F52  .00   .12-    200214 G96  .68+  .39-    200216 L01  .02+  .45+    
200128 F52  .33-  .02+    200215 I52  .14+  .20+    200216 L01  .00   .11-    
200214 G96  .22-  .22+    200215 I52  .30-  .18-    200216 L01  .17-  .12-    

Ephemerides (geocentric):
Date (UTC) HH   RA              Dec         delta   r     elong  mag " sig PA
---- -- -- --  -------------   -----------  ------ ------ -----  --- ---- ---
2020 02 16 09  11 32 49.495   +19 23 16.45  .36216 1.3266 155.9 21.4 .225  77
2020 02 16 10  11 32 49.719   +19 22 01.29  .36195 1.3265 155.9 21.4 .235  77
2020 02 16 11  11 32 49.938   +19 20 46.03  .36175 1.3263 155.9 21.4 .246  77
2020 02 16 12  11 32 50.152   +19 19 30.66  .36155 1.3262 156.0 21.4 .256  77
2020 02 16 13  11 32 50.361   +19 18 15.20  .36134 1.3261 156.0 21.4 .266  77
2020 02 16 14  11 32 50.565   +19 16 59.64  .36114 1.3260 156.0 21.4 .277  77
2020 02 16 15  11 32 50.765   +19 15 43.97  .36093 1.3259 156.1 21.3 .287  77
2020 02 16 16  11 32 50.959   +19 14 28.21  .36073 1.3258 156.1 21.3 .298  77
2020 02 16 17  11 32 51.149   +19 13 12.34  .36053 1.3256 156.1 21.3 .308  77
2020 02 16 18  11 32 51.334   +19 11 56.37  .36033 1.3255 156.2 21.3 .319  77
2020 02 16 19  11 32 51.514   +19 10 40.31  .36012 1.3254 156.2 21.3 .330  77
2020 02 16 20  11 32 51.689   +19 09 24.14  .35992 1.3253 156.3 21.3 .340  77
2020 02 16 21  11 32 51.859   +19 08 07.87  .35972 1.3252 156.3 21.3 .351  77
2020 02 16 22  11 32 52.024   +19 06 51.50  .35952 1.3251 156.3 21.3 .362  77
2020 02 16 23  11 32 52.185   +19 05 35.03  .35932 1.3250 156.4 21.3 .373  76
2020 02 17 00  11 32 52.341   +19 04 18.45  .35911 1.3248 156.4 21.3 .384  76
2020 02 17 01  11 32 52.491   +19 03 01.78  .35891 1.3247 156.4 21.3 .395  76
2020 02 17 02  11 32 52.638   +19 01 45.00  .35871 1.3246 156.5 21.3 .406  76
2020 02 17 03  11 32 52.779   +19 00 28.13  .35851 1.3245 156.5 21.3 .417  76
2020 02 17 04  11 32 52.915   +18 59 11.15  .35831 1.3244 156.5 21.3 .428  76
2020 02 17 05  11 32 53.047   +18 57 54.07  .35811 1.3243 156.6 21.3 .439  76
2020 02 17 06  11 32 53.173   +18 56 36.89  .35791 1.3241 156.6 21.3 .450  76
2020 02 17 07  11 32 53.295   +18 55 19.61  .35771 1.3240 156.7 21.3 .461  76
2020 02 17 08  11 32 53.412   +18 54 02.22  .35751 1.3239 156.7 21.3 .472  76
2020 02 17 09  11 32 53.524   +18 52 44.73  .35731 1.3238 156.7 21.3 .484  76
2020 02 17 10  11 32 53.632   +18 51 27.15  .35712 1.3237 156.8 21.3 .495  76
2020 02 17 11  11 32 53.734   +18 50 09.46  .35692 1.3236 156.8 21.3 .507  76
2020 02 17 12  11 32 53.832   +18 48 51.67  .35672 1.3235 156.8 21.3 .518  76
2020 02 17 13  11 32 53.925   +18 47 33.77  .35652 1.3234 156.9 21.3 .530  76
2020 02 17 14  11 32 54.013   +18 46 15.78  .35632 1.3232 156.9 21.3 .541  76
2020 02 17 15  11 32 54.096   +18 44 57.68  .35613 1.3231 157.0 21.3 .553  76
2020 02 17 16  11 32 54.175   +18 43 39.48  .35593 1.3230 157.0 21.3 .564  76
2020 02 17 17  11 32 54.248   +18 42 21.18  .35573 1.3229 157.0 21.3 .576  76
2020 02 17 18  11 32 54.317   +18 41 02.77  .35553 1.3228 157.1 21.3 .588  76
2020 02 17 19  11 32 54.381   +18 39 44.27  .35534 1.3227 157.1 21.3 .600  76
2020 02 17 20  11 32 54.440   +18 38 25.66  .35514 1.3226 157.1 21.3 .611  76
2020 02 17 21  11 32 54.495   +18 37 06.95  .35495 1.3225 157.2 21.3 .623  76
2020 02 17 22  11 32 54.545   +18 35 48.13  .35475 1.3223 157.2 21.3 .635  76
2020 02 17 23  11 32 54.589   +18 34 29.22  .35455 1.3222 157.3 21.3 .647  76
2020 02 18 00  11 32 54.629   +18 33 10.20  .35436 1.3221 157.3 21.3 .659  76
2020 02 18 01  11 32 54.665   +18 31 51.08  .35416 1.3220 157.3 21.3 .671  76
2020 02 18 02  11 32 54.695   +18 30 31.86  .35397 1.3219 157.4 21.3 .683  76
2020 02 18 03  11 32 54.721   +18 29 12.53  .35378 1.3218 157.4 21.3 .696  76
2020 02 18 04  11 32 54.742   +18 27 53.10  .35358 1.3217 157.4 21.3 .708  76
2020 02 18 05  11 32 54.758   +18 26 33.57  .35339 1.3216 157.5 21.3 .720  76
2020 02 18 06  11 32 54.770   +18 25 13.94  .35319 1.3215 157.5 21.3 .732  76
2020 02 18 07  11 32 54.776   +18 23 54.20  .35300 1.3213 157.6 21.3 .745  76
2020 02 18 08  11 32 54.778   +18 22 34.36  .35281 1.3212 157.6 21.3 .757  76